Погода в Валае

Россия / Пермский край     60°49′38″N   57°30′25″E
темп.,
°C
ветер,
м/с
пор.,
м/с
влажн.,
%
обл.,
%
осадки,
мм/ч
давл.,
гПа
погр.,
м
13 мая, чт
чт1323:00+14з2479100 0.0 102566
02:00+12зюз228428 0.0 102619
05:00+11зюз118864 0.0 102611
08:00+16зсз1467100 0.0 1027245
11:00+21з235140 0.0 1026909
14:00+24зюз34425 0.0 10251913
17:00+24зюз344044 0.0 10251951
20:00+21юз225590 0.0 102417
14 мая, пт
пт1423:00+16ююз22683 0.0 102414
02:00+14ююз22725 0.0 102332
05:00+14ю247399 0.0 102375
08:00+18юз396479 0.1 1022345
11:00+23юз474632 0.1 10211034
14:00+25юз593527 0.0 10191791
17:00+24юз511439 0.0 10182306
20:00+22юз41047100 0.0 1015646
15 мая, сб
сб1523:00+19зюз3126372 0.3 1016453
02:00+15зюз2985100 0.2 1017216
05:00+14зюз269174 0.3 1017112
08:00+18зюз26655 0.0 1017364
11:00+22зюз36475 0.0 10171636
14:00+21зюз3754100 0.0 1017644
17:00+21з2549100 0.0 1016162
20:00+16св0181100 2.1 101627
16 мая, вс
вс1623:00+14ююв11896 2.4 101511
02:00+14ююв1192100 2.8 101413
05:00+13ююз2895100 4.2 1014186
08:00+17ююз410816 0.0 1014413
11:00+22юз5115027 0.0 10121245
14:00+26зюз614365 0.0 10112519
17:00+27юз6143325 0.0 10092875
20:00+24юз6143913 0.0 10081322
17 мая, пн
пн1723:00+16зюз71582100 4.4 10111005
02:00+14юз31184100 2.2 1011376
05:00+13ююз310932 2.2 1010326
08:00+16юз48837 0.0 1009478
11:00+19зюз486868 2.5 10091203
14:00+19зсз5971100 2.4 10101435
17:00+16ссз587355 4.1 10131082
20:00+11с477990 0.0 1016740